Location: Baix
(44.7118°N, 4.7648°E)
Time: 06:14:38
(UTC+00:00)

Vanguard 1 - Pass Details

Date: 04 December 2020
Orbit: 648 x 3834 km, 34.3° (Epoch: 21 January)

Event Time Altitude Azimuth Distance (km) Brightness Sun altitude
Rises 07:59:48 0° 265° (W) 4,030 12.8 7.5°
Reaches altitude 10° 08:02:29 10° 255° (WSW) 3,380 12.5 7.8°
Maximum altitude 08:09:58 31° 196° (SSW) 2,935 12.9 8.8°
Drops below altitude 10° 08:22:08 10° 143° (SE) 5,561 16.7 10.3°
Sets 08:28:12 0° 135° (SE) 7,087 16.7 11.0°
